FENGYUN 1C DEB

Satellite information

Favourite Embed

Satellite Type and Status

DEBRISIN ORBIT

Key statistics

Satellite FENGYUN 1C DEB at a glance.

Uptime

9618

Days in orbit

Revolutions

≈ 15.0

Per day

Orbit

SSO

Sun Synchronous Orbit

Inclination

98.9

Latest

Satellite identification and parameters

Extended collection of information and parameters for FENGYUN 1C DEB.

Object identification

Identified? True

Debris? True

Object name: FENGYUN 1C DEB

International designator: 1999-025CMK

Object number (NORAD): 31934

Object ID (CCSDS): 31934

Country: PEOPLES REPUBLIC OF CHINA (PRC)

Current information (Y/N): Y

RCS size: SMALL

Orbital parameters

Period: 96.21 minutes

Inclination: 98.8987 deg

SMA: 6955.151 km

Apoapsis: 608.798 km

Periapsis: 545.234 km

RAAN: 285.5039 deg

Eccentricy: 0.00456953

Argument of periapsis: 183.6012 deg

Mean anomaly: 176.4884 deg

Mean motion: 14.96728205 rev/day

Mean motion (dot): 0.00055207 rev/day2

B* drag term: 0.0047023174 1/REarth

Two-line elements (TLE)

Creation date: Sept. 7, 2025, 9:49 a.m.

Reference frame: TEME

Reference center: EARTH

Epoch: Sept. 7, 2025, 1:20 a.m. UTC

TLE line 0: 0 FENGYUN 1C DEB

TLE line 1: 1 31934U 99025CMK 25250.05556549 .00055207 00000-0 47023-2 0 9995

TLE line 2: 2 31934 98.8987 285.5039 0045695 183.6012 176.4884 14.96728205593923

Live tracking on map

Real-time ground track for satellite FENGYUN 1C DEB.

In-orbit conjunctions

A list of the most updated potential collisions computed for object FENGYUN 1C DEB.

Target Orbit TCA Probability of collision Miss distance Type
CZ-6A DEB LEO 2025-02-15 06:38:57 0.0002300329 414.0 (m) DEBRIS
CZ-2C R/B SSO 2024-09-26 08:43:54 0.001096585 146.0 (m) ROCKET BODY

Associated space launch

Chinese polar orbiting meteorological satellite

FENGYUN 1C DEB was lifted into orbit during the mission ‘Long March 4B | Feng Yun 1C’, on board a Long March 4B space rocket.

The launch took place on May 10, 1999, 1:33 a.m. from Launch Complex 7.

For more information about the launch, click the button.

Launch to space Long March 4B | Feng Yun 1C
Long March 4B | Feng Yun 1C

Agency: N/A

Status: Launch Successful

Launch date: May 10, 1999, 1:33 a.m. UTC

Rocket: Long March 4B

Launch pad: Launch Complex 7

Location: Taiyuan Satellite Launch Center, People's Republic of China

...

Latest news about this satellite

There are no fresh news available about this satellite. Check back as we update our databases every day.


Newsletter sign-up

Weekly statistics, charts and insights to help you stay on top of the space industry.